Park Rapids, MN

3:36 AM CST on February 22, 2017 (GMT -0600)
Park Rapids Municipal

Weather History for KPKD - August, 2012

Change the Weather History Date:

Thursday, August 2, 2012

  Actual Average Record
Temperature  
Mean Temperature 71 °F -  
Max Temperature 82 °F 79 °F 97 °F (1958)
Min Temperature 60 °F 53 °F 39 °F (1976)
Cooling Degree Days 6    
Growing Degree Days 21 (Base 50)    
Moisture  
Dew Point 57 °F    
Average Humidity 63    
Maximum Humidity 93    
Minimum Humidity 35    
Precipitation  
Precipitation 0.00 in - - ()
Sea Level Pressure  
Sea Level Pressure 29.87 in    
Wind  
Wind Speed 5 mph (NNW)    
Max Wind Speed 10 mph    
Max Gust Speed -    
Visibility 10 miles    
Events      
Averages and records for this station are not official NWS values.
T = Trace of Precipitation, MM = Missing Value Source: NWS Daily Summary

Daily Weather History Graph

Daily Weather History Graph

Search for Another Location

Airport or City:

Trip Planner

Search our weather history database for the weather conditions in past years. The results will help you decide how hot, cold, wet, or windy it might be!

Date:

Astronomy

Aug. 02, 2012 Rise Set
Actual Time 6:01 AM CDT 8:50 PM CDT
Civil Twilight 5:26 AM CDT 9:25 PM CDT
Nautical Twilight 4:41 AM CDT 10:09 PM CDT
Astronomical Twilight 3:48 AM CDT 11:02 PM CDT
Moon 8:47 PM CDT (8/2) 6:46 AM CDT (8/2)
Length of Visible Light 15h 58m
Length of Day
14h 48m
Full, 100% of the Moon is Illuminated
Aug 2
Full
Aug 9
Last Quarter
Aug 17
New
Aug 24
First Quarter
Aug 31
Full

Hourly Weather History & Observations

Time (CDT) Temp. Heat Index Dew Point Humidity Pressure Visibility Wind Dir Wind Speed Gust Speed Precip Events Conditions
12:53 AM 66.0 °F - 61.0 °F 84% 29.89 in 10.0 mi WNW 6.9 mph - N/A   Partly Cloudy
1:53 AM 64.0 °F - 61.0 °F 90% 29.87 in 10.0 mi NW 8.1 mph - N/A   Clear
2:53 AM 63.0 °F - 60.1 °F 90% 29.86 in 10.0 mi NW 6.9 mph - N/A   Clear
3:53 AM 60.1 °F - 57.9 °F 93% 29.85 in 10.0 mi Calm Calm - N/A   Clear
4:53 AM 60.1 °F - 57.0 °F 90% 29.85 in 10.0 mi Calm Calm - N/A   Clear
5:53 AM 60.1 °F - 57.9 °F 93% 29.85 in 10.0 mi Calm Calm - N/A   Clear
6:53 AM 60.1 °F - 57.9 °F 93% 29.86 in 10.0 mi NW 3.5 mph - N/A   Clear
7:53 AM 66.9 °F - 61.0 °F 81% 29.86 in 10.0 mi NW 3.5 mph - N/A   Clear
8:53 AM 70.0 °F - 57.9 °F 65% 29.88 in 10.0 mi North 10.4 mph - N/A   Clear
9:53 AM 73.0 °F - 57.9 °F 59% 29.89 in 10.0 mi North 8.1 mph - N/A   Clear
10:53 AM 75.0 °F - 57.0 °F 53% 29.90 in 10.0 mi NNE 5.8 mph - N/A   Clear
11:53 AM 77.0 °F - 55.9 °F 48% 29.90 in 10.0 mi NW 5.8 mph - N/A   Clear
12:53 PM 78.8 °F - 55.4 °F 44% 29.91 in 10.0 mi WNW 6.9 mph - N/A   Partly Cloudy
1:53 PM 79.0 °F - 53.1 °F 40% 29.88 in 10.0 mi North 5.8 mph - N/A   Clear
2:53 PM 81.0 °F 80.7 °F 55.0 °F 41% 29.87 in 10.0 mi NW 9.2 mph - N/A   Clear
3:53 PM 82.0 °F 81.3 °F 54.0 °F 38% 29.87 in 10.0 mi NW 8.1 mph - N/A   Clear
4:53 PM 82.0 °F 81.3 °F 54.0 °F 38% 29.86 in 10.0 mi NNW 8.1 mph - N/A   Clear
5:53 PM 82.0 °F - 52.0 °F 35% 29.87 in 10.0 mi NW 10.4 mph - N/A   Clear
6:53 PM 80.1 °F 79.9 °F 53.1 °F 39% 29.87 in 10.0 mi NW 8.1 mph - N/A   Clear
7:53 PM 77.0 °F - 55.9 °F 48% 29.86 in 10.0 mi NW 3.5 mph - N/A   Mostly Cloudy
8:53 PM 73.9 °F - 59.0 °F 59% 29.88 in 10.0 mi Calm Calm - N/A   Scattered Clouds
9:53 PM 73.0 °F - 57.9 °F 59% 29.88 in 10.0 mi East 4.6 mph - N/A   Clear
10:53 PM 69.1 °F - 59.0 °F 70% 29.89 in 10.0 mi Calm Calm - N/A   Clear
11:53 PM 68.0 °F - 59.0 °F 73% 29.88 in 10.0 mi Calm Calm - N/A   Clear